TIME,DELAY(SENSOR),PRES,T(CTD),SAL,OXYGEN,RAWTEMP,T(OPTODE),TCPHASE,FLUOR,BETA(BETA700),BETA(BETA412),BETA(BETA440),CDOM,C(CSC),ED(ED412.40),ED(ED444.00),ED(ED489.70),ED(ED554.30),LU(LU411.80),LU(LU443.40),LU(LU489.60),LU(LU554.10),COMP,TILTX,TILTX(TILTY),CHECK
1367271941,5807,496.8800048828125000,6.6402001380920410,34.0960998535156250,84.4079284667968800,598.5280761718750000,6.6318039894104000,48.3786811828613300,52,103,88,80,78,14750,2147748269,2147427108,2148008411,2147874496,2147626432,2147073828,2148244708,2147200923,356,4,12,60746
1367272040,5810,485.9400024414062500,6.8280000686645510,34.1006011962890600,89.5589065551757800,592.9489746093750000,6.8118038177490230,47.7115707397460940,52,103,87,80,78,14751,2147746048,2147422976,2148007186,2147877028,2147628617,2147074843,2148241654,2147197540,2652,4,13,56112
1367272158,5810,474.3999938964844000,7.1535000801086430,34.1016998291015600,95.2925262451171900,582.8842163085938000,7.1357960700988770,46.9282112121582000,51,105,90,80,77,14754,2147747108,2147422107,2148004699,2147876059,2147627227,2147072384,2148238518,2147198116,2752,3,13,5937
1367272301,5809,463.7399902343750000,7.3193998336791990,34.0982017517089840,104.8544998168945300,577.5225830078125000,7.3080058097839355,45.8369102478027340,50,103,85,80,77,14750,2147747044,2147423771,2148006363,2147875922,2147624914,2147086573,2148236845,2147197778,1515,3,13,63511
1367272466,5809,451.6099853515625000,7.6301999092102050,34.0946998596191400,114.1182022094726600,567.9075927734375000,7.6161990165710450,44.7503204345703100,51,104,88,81,75,14751,2147743753,2147425051,2148006107,2147874441,2147625517,2147085796,2148231652,2147197522,3317,5,13,54328
1367272598,5808,440.4200134277344000,7.9457998275756840,34.0926017761230500,124.3356018066406200,558.1240844726562000,7.9289650917053220,43.6099510192871100,51,104,87,79,76,14743,2147742189,2147424356,2148006381,2147874669,2147623771,2147081590,2148237421,2147203008,2031,4,13,22341
1367272733,5808,429.0599975585937500,8.1194000244140620,34.0667991638183600,148.1708984375000000,552.0491943359375000,8.1227626800537110,41.4253311157226560,50,104,89,81,74,14742,2147741275,2147423369,2148006820,2147871296,2147620653,2147091273,2148232018,2147204370,1714,4,13,28796
1367272853,5807,418.7099914550781000,8.2719001770019530,34.0658988952636700,155.1356048583984400,547.1063842773438000,8.2802181243896480,40.7794799804687500,50,102,84,80,74,14743,2147743177,2147424045,2148003776,2147873398,2147620973,2147089088,2148229897,2147202075,1166,4,13,33506
1367272985,5809,407.2799987792969000,8.7378997802734380,34.0680007934570300,171.5690002441406200,533.4055786132812000,8.7156352996826170,39.3004684448242200,50,103,86,79,74,14744,2147739026,2147424521,2148001718,2147874413,2147620681,2147093942,2148233024,2147204050,3284,4,13,37890
1367273108,5807,396.3099975585937500,9.0059003829956050,34.0802001953125000,182.4967041015625000,524.4788208007812000,8.9985351562500000,38.3805885314941400,50,103,91,80,72,14741,2147736173,2147422985,2148004772,2147874267,2147621851,2147094665,2148229650,2147202139,1736,4,13,24163
1367273229,5810,385.2399902343750000,9.2789001464843750,34.0873985290527340,186.9647979736328000,516.2731933593750000,9.2580490112304690,37.9380912780761700,50,103,86,80,72,14741,2147739218,2147425526,2148009499,2147873728,2147617590,2147098459,2148229357,2147203017,1278,4,13,34890
1367273353,5809,374.1300048828125000,9.5279998779296880,34.0982017517089840,199.2131042480468800,507.1686096191406000,9.5454130172729500,36.9947814941406250,48,103,86,79,71,14741,2147737728,2147426788,2148006043,2147878381,2147615808,2147100726,2148224594,2147202898,2176,4,13,27029
1367273485,5812,363.2999877929687500,9.8851003646850590,34.1170005798339840,207.9376983642578000,496.6032104492187500,9.8781423568725590,36.2864913940429700,49,102,85,79,70,14740,2147737728,2147424914,2148011730,2147875684,2147616466,2147099776,2148219885,2147203977,2337,4,13,26724
1367273628,5807,352.8800048828125000,10.1753997802734380,34.1155014038085940,203.0603027343750000,486.8380126953125000,10.1849899291992190,36.4144706726074200,49,103,89,80,72,14736,2147738057,2147427446,2148011492,2147874752,2147611876,2147099382,2148227766,2147203849,1102,4,13,34441
1367273773,5807,341.5000000000000000,10.6156997680664060,34.1338005065918000,203.9071044921875000,472.8226928710937500,10.6242799758911130,36.1296310424804700,48,105,83,80,70,14739,2147732214,2147428891,2148014336,2147874450,2147607817,2147107300,2148228224,2147203986,3264,4,13,60503
1367273894,5813,330.7500000000000000,11.0662002563476560,34.1496009826660160,207.4851074218750000,459.1643066406250000,11.0512104034423830,35.6916618347168000,49,104,88,80,69,14736,2147730998,2147429467,2148015844,2147874733,2147608246,2147113398,2148227227,2147203794,3108,4,13,50271
1367274029,5811,319.3599853515625000,11.7609996795654300,34.1912002563476560,219.1105957031250000,436.7267150878906000,11.7501897811889650,34.6643905639648440,48,103,87,80,69,14740,2147728274,2147432000,2148025929,2147873947,2147604571,2147115849,2148223844,2147201947,2536,4,14,22261
1367274161,5813,308.2099914550781000,12.2281999588012700,34.2051010131835940,220.5043945312500000,421.1906127929687500,12.2325897216796880,34.3422889709472660,48,103,86,79,68,14737,2147727872,2147436059,2148034093,2147871396,2147600411,2147124800,2148226221,2147205979,2481,4,14,53701
1367274296,5806,297.3399963378906000,12.6729001998901370,34.2132987976074200,215.9651947021484400,406.9158935546875000,12.6747598648071290,34.3698997497558600,49,104,88,80,68,14736,2147725092,2147440018,2148046070,2147873142,2147599286,2147127067,2148230601,2147206381,2102,3,15,34657
1367274439,5804,286.4599914550781000,13.2256002426147460,34.2504005432128900,210.5065002441406200,389.2437133789062500,13.2208995819091800,34.4050292968750000,48,111,87,81,68,14734,2147725714,2147449682,2148067364,2147873243,2147597110,2147134784,2148232493,2147210185,1716,3,14,5011
1367274626,5807,273.4899902343750000,14.0523996353149410,34.3209991455078100,212.7156066894531200,362.5787048339844000,14.0425701141357420,33.8716812133789060,48,102,88,80,67,14731,2147726052,2147464292,2148098459,2147872914,2147593252,2147152411,2148248896,2147208896,3244,3,13,24524
1367274760,5809,262.5000000000000000,14.8290004730224610,34.3997993469238300,213.7624969482422000,336.7731933593750000,14.8354196548461910,33.4273681640625000,49,102,89,79,67,14726,2147726592,2147482605,2148137929,2147874139,2147589869,2147167232,2148262893,2147210203,2192,4,14,24851
1367274892,5808,251.8600006103515600,15.6695003509521480,34.4934005737304700,213.9519042968750000,308.5161132812500000,15.7015104293823240,33.0016899108886700,48,105,85,80,66,14731,2147729133,2147512667,2148188717,2147873883,2147586523,2147191808,2148283748,2147213659,1556,3,15,52946
1367275026,5808,239.7400054931640600,16.3659000396728500,34.5844993591308600,213.4949035644531200,286.4841918945312500,16.3756408691406250,32.7086486816406250,48,105,88,80,66,14724,2147737389,2147560301,2148276260,2147874724,2147588534,2147222637,2148322322,2147220845,3352,3,15,26918
1367275136,5808,228.4900054931640600,17.2318992614746100,34.6893997192382800,213.1683959960937500,257.3747863769531000,17.2652797698974600,32.3126411437988300,48,105,86,80,65,14722,2147749467,2147631003,2148394377,2147872246,2147594340,2147274413,2148381842,2147226660,24,4,14,57593
1367275246,5809,217.4900054931640600,17.8376998901367200,34.7849998474121100,216.0541992187500000,237.7501068115234400,17.8646697998046880,31.8810596466064450,50,107,86,80,65,14718,2147763748,2147637284,2148369453,2147873819,2147597266,2147288292,2148374482,2147225216,2092,3,15,52529
1367275369,5811,205.7400054931640600,18.7378997802734380,34.9053001403808600,219.2845001220703000,208.3141937255859400,18.7636108398437500,31.3047904968261720,54,114,89,81,64,14704,2147862326,2147905956,2148832064,2147875995,2147632365,2147453147,2148594779,2147241490,548,3,14,624
1367275468,5807,197.1499938964843800,19.1737995147705080,34.9604988098144500,220.4470062255859400,193.5119934082031200,19.2157993316650400,31.0434703826904300,59,116,89,81,64,14694,2147929984,2148036443,2149013284,2147874450,2147666194,2147548745,2148689929,2147249517,837,3,13,27527
1367275523,5808,193.0000000000000000,19.5137004852294920,35.0074996948242200,220.9730987548828000,183.9544982910156200,19.5078697204589840,30.8872203826904300,62,113,87,81,64,14694,2147997686,2148158482,2149194596,2147875108,2147691062,2147626953,2148782326,2147254272,1175,2,15,16959
1367275578,5807,188.8600006103515600,19.6646995544433600,35.0289993286132800,220.7996978759765600,178.3780975341797000,19.6783294677734380,30.8215999603271500,67,115,91,81,64,14690,2148068681,2148277613,2149359936,2147875474,2147723062,2147699053,2148871780,2147262016,318,3,15,64000
1367275653,5803,183.6399993896484400,20.1098003387451170,35.0844993591308600,220.4842071533203000,164.6793060302734400,20.0972499847412100,30.6544704437255860,77,118,88,82,63,14672,2148182765,2148464813,2149620096,2147874779,2147775826,2147813083,2148989668,2147275154,3294,3,15,17237
1367275708,5809,180.4499969482422000,20.3260993957519530,35.1114997863769500,220.8890075683593800,157.2601928710937500,20.3242702484130860,30.5352191925048830,83,120,87,82,62,14674,2148274925,2148598848,2149801398,2147877824,2147815725,2147887177,2149074276,2147276909,3075,2,15,25634
1367275785,5807,175.7400054931640600,20.4514999389648440,35.1315002441406250,221.6425018310547000,153.2677001953125000,20.4464702606201170,30.4440193176269530,82,123,90,83,62,14665,2148467904,2148896685,2150209828,2147878820,2147897225,2148049801,2149244022,2147295360,2055,3,15,16757
1367275840,5807,172.0700073242187500,20.7369003295898440,35.1697998046875000,221.7873992919922000,144.3632049560547000,20.7191390991210940,30.3191299438476560,89,121,92,83,62,14660,2148652818,2149161170,2150559030,2147882340,2147982637,2148198976,2149408283,2147306733,1740,2,15,49863
1367275907,5806,167.6199951171875000,21.0363006591796880,35.2028999328613300,222.2839050292968800,134.1439971923828000,21.0322895050048830,30.1597309112548830,92,122,90,82,61,14656,2148782674,2149284324,2150672850,2147883117,2148039771,2148252955,2149426633,2147309732,898,2,15,13029
1367275984,5809,162.8699951171875000,21.1963996887207030,35.2187004089355500,224.6255950927734400,129.2378997802734400,21.1827106475830080,29.9782905578613280,104,121,89,82,61,14649,2148778093,2149157677,2150382153,2147883931,2148056822,2148209408,2149344658,2147306541,634,2,15,29979
1367276050,5810,159.3800048828125000,21.4088993072509770,35.2422981262207000,225.0970001220703000,122.9494018554687500,21.3756103515625000,29.8728008270263670,109,129,90,83,61,14635,2149593801,2150456877,2152240036,2147895899,2148402660,2148876059,2150105289,2147368676,837,2,15,58118
1367276127,5807,155.8399963378906200,21.5991992950439450,35.2654991149902340,226.3343048095703000,117.2453994750976600,21.5506801605224600,29.7378196716308600,108,125,91,83,60,14638,2149226880,2149745828,2151111232,2147889298,2148265408,2148515090,2149639460,2147332105,896,2,15,46800
1367276226,5806,151.6999969482422000,21.6636009216308600,35.2774009704589840,228.4268035888672000,113.6359024047851600,21.6615104675292970,29.5888805389404300,108,123,88,83,61,14633,2150413046,2151516041,2153542674,2147902208,2148828763,2149491392,2150723547,2147417874,1561,2,16,24289
1367276327,5811,147.8899993896484400,21.7751998901367200,35.2877998352050800,230.0968933105468800,110.0559997558593800,21.7714691162109380,29.4621105194091800,111,126,91,83,61,14625,2151022400,2152289837,2154494509,2147911616,2149144484,2149926180,2151152219,2147453056,1822,2,15,34113
1367276460,5807,144.4199981689453000,22.0559997558593750,35.3443984985351560,231.9844970703125000,100.1902999877929700,22.0747108459472660,29.2452297210693360,115,123,91,83,59,14621,2151874569,2153358299,2155800173,2147920722,2149595766,2150505984,2151718034,2147500580,1127,2,15,28273
1367276667,5808,139.6300048828125000,22.2513999938964840,35.3576011657714840,237.3007965087890600,94.7461700439453100,22.2421798706054700,28.9269905090332030,129,125,87,82,59,14602,2153340288,2155144548,2157720987,2147940699,2150361755,2151354313,2152476598,2147571702,617,2,15,5870
1367276755,5809,135.8399963378906200,22.3425998687744140,35.3489990234375000,237.7386016845703000,91.1800765991211000,22.3519306182861330,28.8617305755615230,132,123,91,83,59,14601,2154808438,2156929590,2159620580,2147958628,2151042249,2152170395,2153252041,2147637814,834,2,15,35422
1367276843,5808,131.7599945068359400,22.4648990631103500,35.3732986450195300,241.7480926513672000,87.8397064208984400,22.4547805786132800,28.6368408203125000,109,119,90,83,60,14611,2155769252,2158086665,2160752740,2147975606,2151613357,2152754907,2153715300,2147687094,278,2,15,24909
1367276922,5808,127.4000015258789000,22.4897994995117200,35.3735008239746100,242.8457031250000000,86.4681472778320300,22.4970207214355470,28.5702800750732420,103,121,89,82,58,14610,2158613513,2161749952,2164741421,2148023981,2153372836,2154914605,2155730505,2147857206,3142,2,16,49999
1367276977,5809,123.7699966430664000,22.5729007720947270,35.3792991638183600,243.3504028320312500,84.0131912231445300,22.5726509094238280,28.5167503356933600,92,121,92,82,59,14609,2160506166,2164089490,2167099629,2148058706,2154665654,2156462811,2157104384,2147974162,3053,2,15,5510
1367277032,5807,120.1800003051757800,22.6168994903564450,35.3829994201660160,243.6791992187500000,82.6614074707031200,22.6142997741699220,28.4852008819580080,87,121,93,82,58,14617,2161697636,2165545188,2168452251,2148091355,2155543158,2157455552,2157882733,2148039753,2783,2,16,19975
1367277098,5805,115.9100036621093800,22.6401996612548830,35.3838005065918000,244.2256927490234400,82.4275436401367200,22.6215095520019530,28.4577999114990230,88,121,91,83,58,14617,2165706102,2170380141,2173341394,2148179858,2158235273,2160662582,2160659474,2148277686,2713,2,16,25833
1367277164,5812,111.8499984741211000,22.6818008422851560,35.3838005065918000,243.6443939208984400,80.3081436157226600,22.6868305206298830,28.4573001861572270,82,122,90,82,55,14610,2169210569,2174480978,2177244461,2148266761,2160502244,2163358208,2162902683,2148473929,2689,1,16,56648
1367277238,5807,107.8399963378906200,22.7879009246826170,35.3819999694824200,243.6009979248047000,77.4237136840820300,22.7757492065429700,28.4229793548584000,72,124,91,84,59,14608,2155502674,2156203830,2156345197,2147975990,2152583405,2152943872,2152884096,2147628955,2490,2,16,43838
1367277337,5809,103.8099975585937500,22.9199008941650400,35.3926010131835940,244.8851013183593800,72.9620666503906200,22.9133701324462900,28.3100490570068360,69,128,94,85,58,14592,2159975049,2161466221,2161716114,2148080512,2155786852,2156730386,2156038454,2147896338,2956,1,16,12148
1367277436,5807,100.0100021362304700,22.9944000244140620,35.3972015380859400,245.9017944335937500,70.6108703613281200,22.9859199523925780,28.2359600067138670,68,127,94,85,57,14590,2180120658,2186499620,2188876251,2148672347,2169674084,2173859236,2170956388,2149144557,3444,1,16,32328
1367277491,5817,97.7600021362304700,22.9941005706787100,35.3983993530273440,246.3200988769531200,70.3933334350586000,22.9926395416259770,28.2147998809814450,67,127,92,85,57,14583,2182133888,2188602139,2190837586,2148781193,2171532260,2175879305,2172416512,2149270646,3590,2,16,24796
1367277548,5811,95.3399963378906200,22.9946002960205080,35.3977012634277340,246.4846954345703000,70.3133621215820300,22.9951000213623050,28.2065391540527340,68,127,94,85,57,14585,2184555465,2191186742,2193425060,2148918253,2173803126,2178346230,2174238418,2149425472,3472,2,16,58922
1367277603,5806,92.9199981689453100,23.0095996856689450,35.3965988159179700,246.5520019531250000,69.8886032104492200,23.0082092285156250,28.1983890533447270,68,130,95,86,58,14582,2187484379,2194320786,2196473901,2149104832,2176449901,2181251894,2176417490,2149622966,3207,2,16,29700
1367277658,5808,90.4300003051757800,23.0461006164550780,35.3973999023437500,246.5576934814453000,68.5902175903320300,23.0482902526855470,28.1819190979003900,67,126,92,86,56,14580,2190975625,2198263524,2200487168,2149318774,2179535314,2184602724,2178913728,2149839625,2891,2,16,7386
1367277713,5803,88.0400009155273400,23.1292991638183600,35.4017982482910160,246.9718017578125000,66.5485229492187500,23.1113300323486330,28.1383590698242200,67,127,93,86,59,14584,2194350701,2201870866,2203981440,2149553554,2182890267,2188235712,2181690816,2150097124,2747,2,16,39998
1367277768,5806,85.8199996948242200,23.1443996429443360,35.4019012451171900,247.0767974853515600,65.6178512573242200,23.1400699615478500,28.1222991943359380,67,128,94,86,56,14574,2197959533,2205836754,2207943222,2149833554,2186431131,2192064905,2184556964,2150357942,2651,2,16,32373
1367277823,5807,83.6399993896484400,23.1567993164062500,35.4015998840332000,247.1961059570312500,65.0736999511718800,23.1568794250488280,28.1102409362792970,66,129,94,86,58,14578,2203188726,2211799689,2214129280,2150212699,2191274560,2197370496,2188597110,2150745746,2287,2,16,62053
1367277880,5806,81.4300003051757800,23.1646995544433600,35.3998985290527340,247.2588043212890600,64.7989120483398400,23.1653594970703120,28.1040191650390620,64,131,92,86,57,14574,2200897664,2208586678,2210396178,2150206784,2190271707,2195729718,2186817216,2150608128,1839,2,16,33559
1367277935,5811,79.3499984741211000,23.1679992675781250,35.3989982604980500,247.2729034423828000,64.6011428833007800,23.1714706420898440,28.1009998321533200,66,128,93,87,57,14573,2209933686,2218985718,2221513014,2150946084,2197628114,2203956653,2193350555,2151236690,1355,2,16,48874
1367277990,5805,77.2799987792968800,23.1753005981445300,35.3997001647949200,247.4084014892578000,64.3705062866211000,23.1785907745361330,28.0921897888183600,65,131,92,86,58,14574,2213716781,2222789120,2225150272,2151267209,2201942976,2208540187,2196749312,2151556452,910,1,16,47085
1367278045,5805,75.2699966430664000,23.1963996887207030,35.3983993530273440,247.5290985107422000,63.6828689575195300,23.1998405456542970,28.0783195495605470,64,131,94,86,56,14574,2217823817,2227166016,2229636224,2151789421,2205814372,2212527862,2199686354,2151864118,502,2,16,59030
1367278100,5810,73.3399963378906200,23.2094001770019530,35.3959999084472660,247.6811981201172000,63.0979881286621100,23.2178993225097660,28.0646400451660160,65,129,92,86,58,14565,2222106861,2231807067,2234419145,2152353408,2209981641,2216860507,2202873179,2152211611,236,1,16,55116
1367278155,5809,71.5800018310546900,23.2376995086669920,35.4031982421875000,247.9382019042968800,62.3636283874511700,23.2405891418457030,28.0443191528320300,63,130,96,86,57,14569,2225932717,2235501266,2237687277,2152754953,2214376228,2221307638,2206046592,2152524598,201,2,16,17019
1367278229,5809,68.8899993896484400,23.2886009216308600,35.4029006958007800,248.0113067626953000,60.6946716308593750,23.2921600341796880,28.0204505920410160,62,130,91,87,58,14560,2233732992,2243999323,2246527350,2154033755,2222245622,2229352009,2211886034,2153199369,26,1,16,54833
1367278284,5810,66.4400024414062500,23.3229007720947270,35.4049987792968750,248.3625030517578000,59.6313400268554700,23.3250293731689450,27.9919490814209000,63,130,91,87,59,14562,2242510381,2253564553,2256179401,2155286674,2231066057,2238332233,2218417280,2153965156,3145,2,16,25199
1367278339,5811,64.0100021362304700,23.3495998382568360,35.4067001342773440,248.2787017822265600,58.2778701782226560,23.3668708801269530,27.9789390563964840,63,130,90,88,57,14564,2248264960,2259506075,2261688118,2156199798,2238577545,2245489289,2223117202,2154539309,2591,1,16,2706
1367278394,5809,61.6500015258789060,23.3901004791259770,35.4019012451171900,248.4844970703125000,57.3411102294921900,23.3958301544189450,27.9582595825195300,62,131,93,87,57,14557,2255361673,2266631817,2268690816,2157644059,2247218779,2253907721,2228928192,2155297572,2295,2,16,39120
1367278449,5809,59.3499984741210940,23.3943004608154300,35.4020996093750000,248.7355041503906200,57.2239799499511700,23.3994503021240230,27.9459495544433600,62,132,92,86,55,14556,2264177755,2276338048,2278759661,2159734738,2255862820,2262319625,2234803830,2156164370,2499,1,16,36737
1367278504,5816,56.9399986267089840,23.4050006866455080,35.4014015197753900,248.7913970947265600,56.9028816223144500,23.4093799591064450,27.9395103454589840,61,131,93,86,57,14560,2271517467,2283751305,2286083611,2161675712,2265061321,2271290569,2241159734,2157056877,2701,1,16,64957
1367278561,5806,54.4099998474121100,23.4384002685546880,35.3875999450683600,248.1934051513672000,55.7860412597656250,23.4439105987548830,27.9515800476074220,61,127,92,85,58,14562,2283894016,2297136228,2299808832,2164142683,2277075254,2282963968,2249283282,2158284022,2380,1,16,44944
1367278616,5809,52.1800003051757800,23.4430999755859380,35.3796997070312500,247.2256927490234400,55.8528213500976560,23.4418506622314450,27.9944496154785160,60,125,90,85,56,14564,2296809472,2309722459,2311687990,2166649142,2289173467,2295662866,2258553609,2159528786,1619,1,16,65390
1367278671,5807,50.1699981689453100,23.5074996948242200,35.3672981262207000,245.1141052246093800,53.6710700988769500,23.5093307495117200,28.0597095489501950,57,124,92,85,57,14566,2280592064,2288414326,2287791588,2164978157,2272858459,2276892937,2242957696,2157924507,1068,2,16,45440
1367278726,5807,48.3100013732910160,23.5238990783691400,35.3670997619628900,244.4696960449218800,52.6931991577148440,23.5395908355712900,28.0759696960449220,57,123,93,85,55,14573,2318773357,2331887469,2335602816,2173575195,2300040877,2307507885,2267590720,2161590820,1045,2,16,7056
1367278781,5808,46.5299987792968750,23.6644992828369140,35.3636016845703100,243.4367980957031200,49.7091407775878900,23.6319293975830080,28.0844097137451170,56,121,94,87,56,14578,2245339337,2245563520,2240699794,2159930486,2247712320,2247911689,2219358217,2155261001,1219,2,16,22043
1367278836,5810,45.1599998474121100,23.7278003692626950,35.3544998168945300,243.0476074218750000,46.6289901733398440,23.7272891998291000,28.0633792877197270,58,125,92,84,57,14565,2337587520,2346906441,2347138614,2177756964,2328041462,2335934875,2287971318,2164487451,1168,1,16,54737
1367278925,5810,42.9099998474121100,23.8796005249023440,35.3582000732421900,242.5209045410156200,41.7141609191894500,23.8795509338378900,28.0257797241210940,54,124,91,83,54,14573,2281181677,2282225664,2277781714,2168282331,2277114651,2278501531,2242249645,2158665481,3529,1,16,5885
1367278980,5806,41.0699996948242200,23.8945999145507800,35.3595008850097660,242.8504943847656200,40.5167808532714840,23.9166603088378900,27.9964904785156250,55,121,93,85,56,14578,2359292306,2366368310,2366485741,2188252699,2344336246,2349355529,2295500891,2166479936,3231,1,16,33731
1367279035,5806,39.1699981689453100,23.9913005828857420,35.3614006042480500,243.0290985107422000,37.7249794006347660,24.0032196044921880,27.9539508819580080,54,123,94,85,53,14578,2374059181,2381935762,2382671597,2194252708,2357401014,2360943012,2303475894,2168220406,2624,2,16,24334
1367279101,5807,37.1199989318847660,24.1616001129150400,35.3605003356933600,243.1569061279297000,33.2139701843261700,24.1431598663330080,27.8925304412841800,55,121,89,85,55,14569,2379188928,2383697883,2382114797,2196683593,2377558710,2379819657,2316193718,2171436050,2377,2,16,35756
1367279178,5808,35.4599990844726560,24.2793998718261720,35.3576011657714840,243.3975067138672000,28.4905300140380860,24.2898006439209000,27.8236198425292970,53,120,94,84,54,14577,2388382820,2392593755,2391543945,2202808155,2388801481,2388317394,2320803227,2172245732,2869,1,16,12819
1367279289,5806,32.9099998474121100,24.3530998229980470,35.3582000732421900,243.7682037353515600,25.9164791107177730,24.3697605133056640,27.7755107879638670,52,122,89,83,52,14579,2407333833,2409728603,2408943734,2212698752,2421574244,2416632841,2338408338,2175708553,3111,2,17,41634